Location: Be?i?
(36.9044°N, 30.1006°E)
Time: 11:31:50
(UTC+00:00)

Terra - Pass Details

Date: 05 August 2024
Orbit: 691 x 695 km, 98.0° (Epoch: 09 September)

Event Time Altitude Azimuth Distance (km) Brightness Sun altitude
Exits shadow 18:35:45 27° 100° (E) 1,315 2.7 -17.1°
Maximum altitude 18:37:01 32° 70° (ENE) 1,197 2.7 -17.3°
Drops below altitude 10° 18:41:11 10° 9° (N) 2,161 4.7 -18.0°
Sets 18:43:37 0° 359° (N) 3,082 5.7 -18.4°
